Regional Weather Roundup
Issued by NWS

Home | Current Version | Previous Version | Graphics & Text | Print | Product List | Glossary On
Versions: 1 2 3 4 5 6 7 8 9 10 11 12 13 14 15 16 17 18 19 20 21 22 23 24 25 26 27 28 29 30 31 32 33 34 35 36 37 38 39 40 41 42 43 44 45 46 47 48 49 50
000
ASUS43 KBIS 011820
RWRND

NORTH DAKOTA REGIONAL WEATHER ROUNDUP
NATIONAL WEATHER SERVICE BISMARCK ND
100 PM CDT WED APR 01 2015

NOTE: "FAIR" INDICATES FEW OR NO CLOUDS BELOW 12,000 FEET WITH NO
SIGNIFICANT WEATHER AND/OR OBSTRUCTIONS TO VISIBILITY.


NDZ001>003-009>011-017-011900-
NORTHWEST NORTH DAKOTA

CITY           SKY/WX    TMP DP  RH WIND       PRES   REMARKS
WILLISTON      PTSUNNY   51  33  50 W24G33    29.63R
6HR MIN TEMP:  47; 6HR MAX TEMP:  53;

MINOT          FAIR      58  34  40 W25G37    29.49R
MINOT AFB      FAIR      56  40  56 NW31G37   29.47S
$$

NDZ018>021-031>035-040>046-011900-
SOUTHWEST NORTH DAKOTA

CITY           SKY/WX    TMP DP  RH WIND       PRES   REMARKS
BISMARCK       PTSUNNY   59  32  36 NW24G39   29.54R
6HR MIN TEMP:  43; 6HR MAX TEMP:  61;

DICKINSON      PTSUNNY   55  25  31 NW37G49   29.61R
GARRISON         N/A     56  33  42 W28G38    29.52R
6HR MIN TEMP:  41; 6HR MAX TEMP:  56;

HETTINGER ARPT PTSUNNY   57  23  26 NW26G41   29.66R
$$

NDZ004>008-012>016-024-026-027-054-011900-
NORTHEAST NORTH DAKOTA

CITY           SKY/WX    TMP DP  RH WIND       PRES   REMARKS
GRAND FORKS    PTSUNNY   63  38  39 S14       29.33F
GRND FRKS AFB  FAIR      62  37  40 S10       29.33F
DEVILS LAKE    FAIR      54  37  54 NW22      29.39R
$$

NDZ022-023-025-028>030-036>039-047>053-011900-
SOUTHEAST NORTH DAKOTA

CITY           SKY/WX    TMP DP  RH WIND       PRES   REMARKS
FARGO          FAIR      70  37  29 S21G28    29.34F
6HR MIN TEMP:  52; 6HR MAX TEMP:  71;

JAMESTOWN      FAIR      59  38  45 NW25G33   29.39R
$$



USA.gov is the U.S. government's official web portal to all federal, state and local government web resources and services.